H1 CPF 2 NER 2021 8 27 9 239 01 glonass133 H2 1403201 9133 40001 2021 8 27 0 0 0 2021 8 30 23 45 0 900 1 1 0 0 0 1 H9 10 0 59453 0.00000 0 21220195.003 12958721.582 -5783997.416 10 0 59453 900.00000 0 21763519.720 13087262.702 -2597566.246 10 0 59453 1800.00000 0 21978732.451 12968265.948 639211.620 10 0 59453 2700.00000 0 21833110.629 12648792.559 3863598.795 10 0 59453 3600.00000 0 21305985.497 12182434.675 7013088.006 10 0 59453 4500.00000 0 20389753.871 11626856.496 10026608.721 10 0 59453 5400.00000 0 19090360.166 11041175.696 12845706.941 10 0 59453 6300.00000 0 17427227.326 10483295.349 15415675.569 10 0 59453 7200.00000 0 15432638.386 10007298.708 17686613.557 10 0 59453 8100.00000 0 13150593.181 9661016.637 19614393.582 10 0 59453 9000.00000 0 10635186.400 9483870.291 21161519.672 10 0 59453 9900.00000 0 7948573.270 9505080.215 22297858.223 10 0 59453 10800.00000 0 5158606.090 9742317.852 23001228.293 10 0 59453 11700.00000 0 2336238.626 10200856.993 23257839.605 10 0 59453 12600.00000 0 -447194.758 10873261.967 23062569.395 10 0 59453 13500.00000 0 -3122713.123 11739626.942 22419072.259 10 0 59453 14400.00000 0 -5626323.179 12768357.657 21339720.093 10 0 59453 15300.00000 0 -7901444.527 13917464.076 19845372.438 10 0 59453 16200.00000 0 -9901025.236 15136310.809 17964980.706 10 0 59453 17100.00000 0 -11589259.706 16367752.638 15735032.977 10 0 59453 18000.00000 0 -12942837.047 17550565.775 13198849.386 10 0 59453 18900.00000 0 -13951667.889 18622072.577 10405741.175 10 0 59453 19800.00000 0 -14619059.390 19520848.771 7410049.436 10 0 59453 20700.00000 0 -14961331.496 20189398.200 4270082.473 10 0 59453 21600.00000 0 -15006891.361 20576681.170 1046972.891 10 0 59453 22500.00000 0 -14794805.993 20640388.390 -2196522.479 10 0 59453 23400.00000 0 -14372934.645 20348863.168 -5397255.251 10 0 59453 24300.00000 0 -13795701.412 19682589.593 -8492925.520 10 0 59453 25200.00000 0 -13121603.817 18635182.886 -11423303.864 10 0 59453 26100.00000 0 -12410564.307 17213839.605 -14131410.334 10 0 59453 27000.00000 0 -11721238.040 15439228.407 -16564626.696 10 0 59453 27900.00000 0 -11108391.834 13344825.892 -18675719.848 10 0 59453 28800.00000 0 -10620465.652 10975725.680 -20423756.420 10 0 59453 29700.00000 0 -10297419.758 8386970.850 -21774891.203 10 0 59453 30600.00000 0 -10168958.111 5641479.670 -22703014.853 10 0 59453 31500.00000 0 -10253202.268 2807651.394 -23190249.256 10 0 59453 32400.00000 0 -10555870.792 -43248.363 -23227282.152 10 0 59453 33300.00000 0 -11069997.738 -2839814.377 -22813535.667 10 0 59453 34200.00000 0 -11776201.171 -5513228.132 -21957166.567 10 0 59453 35100.00000 0 -12643489.668 -7999871.681 -20674899.078 10 0 59453 36000.00000 0 -13630572.479 -10243722.002 -18991694.072 10 0 59453 36900.00000 0 -14687618.079 -12198427.970 -16940261.357 10 0 59453 37800.00000 0 -15758387.389 -13828985.444 -14560424.477 10 0 59453 38700.00000 0 -16782652.367 -15112942.565 -11898350.068 10 0 59453 39600.00000 0 -17698798.829 -16041086.691 -9005656.331 10 0 59453 40500.00000 0 -18446504.675 -16617585.861 -5938417.353 10 0 59453 41400.00000 0 -18969381.438 -16859580.188 -2756081.971 10 0 59453 42300.00000 0 -19217468.448 -16796241.304 479672.299 10 0 59453 43200.00000 0 -19149474.924 -16467340.050 3706128.575 10 0 59453 44100.00000 0 -18734675.611 -15921383.078 6860740.525 10 0 59453 45000.00000 0 -17954379.924 -15213396.867 9882339.665 10 0 59453 45900.00000 0 -16802912.162 -14402452.467 12712316.956 10 0 59453 46800.00000 0 -15288060.679 -13549035.019 15295756.056 10 0 59453 47700.00000 0 -13430975.897 -12712368.608 17582496.412 10 0 59453 48600.00000 0 -11265519.978 -11947808.891 19528105.827 10 0 59453 49500.00000 0 -8837093.617 -11304413.091 21094743.887 10 0 59453 50400.00000 0 -6200987.301 -10822789.634 22251899.531 10 0 59453 51300.00000 0 -3420323.995 -10533318.059 22976988.569 10 0 59453 52200.00000 0 -563677.265 -10454814.458 23255799.422 10 0 59453 53100.00000 0 2297537.455 -10593699.198 23082778.097 10 0 59453 54000.00000 0 5091791.235 -10943702.753 22461146.378 10 0 59453 54900.00000 0 7750177.215 -11486122.997 21402850.205 10 0 59453 55800.00000 0 10209040.128 -12190624.180 19928338.350 10 0 59453 56700.00000 0 12412390.754 -13016544.963 18066174.737 10 0 59453 57600.00000 0 14314004.849 -13914661.260 15852490.927 10 0 59453 58500.00000 0 15879118.840 -14829330.139 13330288.610 10 0 59453 59400.00000 0 17085651.401 -15700924.522 10548605.046 10 0 59453 60300.00000 0 17924899.744 -16468455.719 7561557.351 10 0 59453 61200.00000 0 18401681.552 -17072272.333 4427284.399 10 0 59453 62100.00000 0 18533917.049 -17456720.502 1206807.362 10 0 59453 63000.00000 0 18351669.592 -17572651.751 -2037168.079 10 0 59453 63900.00000 0 17895686.260 -17379671.075 -5241483.384 10 0 59453 64800.00000 0 17215501.414 -16848028.866 -8343767.427 10 0 59453 65700.00000 0 16367184.808 -15960075.583 -11283660.017 10 0 59453 66600.00000 0 15410830.935 -14711216.845 -14003993.633 10 0 59453 67500.00000 0 14407897.095 -13110328.033 -16451909.569 10 0 59453 68400.00000 0 13418503.778 -11179610.618 -18579886.306 10 0 59453 69300.00000 0 12498812.048 -8953896.182 -20346659.980 10 0 59453 70200.00000 0 11698588.904 -6479427.384 -21718019.459 10 0 59453 71100.00000 0 11059062.989 -3812166.940 -22667461.328 10 0 59453 72000.00000 0 10611160.347 -1015705.366 -23176692.998 10 0 59453 72900.00000 0 10374193.492 1841145.456 -23235975.398 10 0 59453 73800.00000 0 10355057.676 4686973.190 -22844299.739 10 0 59453 74700.00000 0 10547966.900 7450492.023 -22009396.004 10 0 59453 75600.00000 0 10934739.555 10063263.506 -20747573.882 10 0 59453 76500.00000 0 11485620.703 12462299.538 -19083399.799 10 0 59453 77400.00000 0 12160605.744 14592440.762 -17049216.622 10 0 59453 78300.00000 0 12911209.441 16408413.206 -14684515.378 10 0 59453 79200.00000 0 13682605.865 17876479.246 -12035170.865 10 0 59453 80100.00000 0 14416049.415 18975615.674 -9152555.635 10 0 59453 81000.00000 0 15051475.375 19698171.236 -6092548.993 10 0 59453 81900.00000 0 15530170.953 20049977.433 -2914459.598 10 0 59453 82800.00000 0 15797404.683 20049908.949 320117.864 10 0 59453 83700.00000 0 15804903.701 19728912.901 3548490.325 10 0 59453 84600.00000 0 15513074.596 19128548.120 6708075.688 10 0 59453 85500.00000 0 14892874.072 18299096.025 9737610.690 10 0 59454 0.00000 0 13927250.229 17297322.509 12578334.178 10 0 59454 900.00000 0 12612092.464 16183984.797 15175123.399 10 0 59454 1800.00000 0 10956650.283 15021187.574 17477560.670 10 0 59454 2700.00000 0 8983399.732 13869699.853 19440911.032 10 0 59454 3600.00000 0 6727363.476 12786344.185 21026991.408 10 0 59454 4500.00000 0 4234909.706 11821568.380 22204914.716 10 0 59454 5400.00000 0 1562078.652 11017301.295 22951694.589 10 0 59454 6300.00000 0 -1227495.651 10405182.859 23252698.820 10 0 59454 7200.00000 0 -4064983.422 10005242.951 23101942.433 10 0 59454 8100.00000 0 -6878978.778 9825084.976 22502214.192 10 0 59454 9000.00000 0 -9598233.250 9859609.058 21465033.376 10 0 59454 9900.00000 0 -12154390.188 10091287.162 20010436.793 10 0 59454 10800.00000 0 -14484606.819 10490979.231 18166599.208 10 0 59454 11700.00000 0 -16533954.889 11019256.614 15969293.554 10 0 59454 12600.00000 0 -18257499.626 11628177.383 13461200.607 10 0 59454 13500.00000 0 -19621969.976 12263438.772 10691080.916 10 0 59454 14400.00000 0 -20606949.996 12866815.613 7712824.715 10 0 59454 15300.00000 0 -21205541.284 13378781.082 4584398.459 10 0 59454 16200.00000 0 -21424468.761 13741197.963 1366708.904 10 0 59454 17100.00000 0 -21283625.747 13899965.311 -1877592.381 10 0 59454 18000.00000 0 -20815078.230 13807507.071 -5085339.590 10 0 59454 18900.00000 0 -20061571.380 13424995.946 -8194093.168 10 0 59454 19800.00000 0 -19074602.630 12724217.066 -11143364.827 10 0 59454 20700.00000 0 -17912144.092 11688991.588 -13875801.971 10 0 59454 21600.00000 0 -16636111.828 10316099.266 -16338307.691 10 0 59454 22500.00000 0 -15309689.975 8615660.494 -18483074.031 10 0 59454 23400.00000 0 -13994623.434 6610961.470 -20268508.274 10 0 59454 24300.00000 0 -12748593.631 4337729.696 -21660034.647 10 0 59454 25200.00000 0 -11622787.735 1842890.085 -22630756.556 10 0 59454 26100.00000 0 -10659763.044 -817146.286 -23161967.452 10 0 59454 27000.00000 0 -9891695.255 -3578589.502 -23243501.596 10 0 59454 27900.00000 0 -9339082.867 -6372686.824 -22873919.067 10 0 59454 28800.00000 0 -9009960.590 -9128347.310 -22060522.512 10 0 59454 29700.00000 0 -8899653.204 -11774866.824 -20819206.198 10 0 59454 30600.00000 0 -8991078.762 -14244641.331 -19174140.915 10 0 59454 31500.00000 0 -9255587.163 -16475756.882 -17157301.141 10 0 59454 32400.00000 0 -9654297.972 -18414350.156 -14807843.704 10 0 59454 33300.00000 0 -10139880.659 -20016642.788 -12171349.705 10 0 59454 34200.00000 0 -10658702.119 -21250566.177 -9298944.072 10 0 59454 35100.00000 0 -11153251.085 -22096910.380 -6246309.253 10 0 59454 36000.00000 0 -11564737.501 -22549950.282 -3072611.595 10 0 59454 36900.00000 0 -11835757.566 -22617523.784 160639.246 10 0 59454 37800.00000 0 -11912912.333 -22320559.446 3390776.279 10 0 59454 38700.00000 0 -11749269.547 -21692073.822 6555183.976 10 0 59454 39600.00000 0 -11306564.853 -20775680.744 9592506.731 10 0 59454 40500.00000 0 -10557049.205 -19623675.105 12443833.859 10 0 59454 41400.00000 0 -9484903.966 -18294771.369 15053838.481 10 0 59454 42300.00000 0 -8087163.142 -16851591.449 17371848.330 10 0 59454 43200.00000 0 -6374102.610 -15358006.961 19352828.024 10 0 59454 44100.00000 0 -4369078.273 -13876446.916 20958253.952 10 0 59454 45000.00000 0 -2107818.084 -12465283.424 22156864.879 10 0 59454 45900.00000 0 362804.551 -11176404.631 22925273.819 10 0 59454 46800.00000 0 2986466.886 -10053076.462 23248429.165 10 0 59454 47700.00000 0 5699493.636 -9128182.713 23119915.837 10 0 59454 48600.00000 0 8433268.922 -8422917.386 22542090.117 10 0 59454 49500.00000 0 11116864.445 -7945984.322 21526044.829 10 0 59454 50400.00000 0 13679775.449 -7693338.086 20091404.692 10 0 59454 51300.00000 0 16054651.277 -7648477.363 18265954.847 10 0 59454 52200.00000 0 18179907.026 -7783278.832 16085108.774 10 0 59454 53100.00000 0 20002107.160 -8059336.665 13591225.132 10 0 59454 54000.00000 0 21478021.301 -8429751.104 10832786.127 10 0 59454 54900.00000 0 22576265.693 -8841290.322 7863453.040 10 0 59454 55800.00000 0 23278461.129 -9236833.572 4741017.405 10 0 59454 56700.00000 0 23579858.500 -9557991.309 1526268.644 10 0 59454 57600.00000 0 23489405.700 -9747790.122 -1718199.011 10 0 59454 58500.00000 0 23029253.401 -9753307.378 -4929215.929 10 0 59454 59400.00000 0 22233721.245 -9528142.499 -8044277.654 10 0 59454 60300.00000 0 21147769.065 -9034618.800 -11002771.275 10 0 59454 61200.00000 0 19825038.784 -8245621.461 -13747162.451 10 0 59454 62100.00000 0 18325550.901 -7145992.933 -16224119.167 10 0 59454 63000.00000 0 16713153.799 -5733426.070 -18385549.842 10 0 59454 63900.00000 0 15052834.296 -4018816.934 -20189535.400 10 0 59454 64800.00000 0 13408003.183 -2026062.118 -21601137.554 10 0 59454 65700.00000 0 11837869.926 208691.066 -22593068.289 10 0 59454 66600.00000 0 10395016.423 2638310.137 -23146208.437 10 0 59454 67500.00000 0 9123270.697 5206406.054 -23249966.507 10 0 59454 68400.00000 0 8055968.321 7849453.004 -22902471.915 10 0 59454 69300.00000 0 7214672.861 10499211.483 -22110599.990 10 0 59454 70200.00000 0 6608407.143 13085354.517 -20889829.167 10 0 59454 71100.00000 0 6233425.753 15538188.739 -19263933.744 10 0 59454 72000.00000 0 6073536.683 17791358.162 -17264518.546 10 0 59454 72900.00000 0 6100957.197 19784419.444 -14930404.526 10 0 59454 73800.00000 0 6277666.892 21465182.778 -12306877.024 10 0 59454 74700.00000 0 6557200.361 22791722.079 -9444810.893 10 0 59454 75600.00000 0 6886803.602 23733971.867 -6399688.936 10 0 59454 76500.00000 0 7209863.232 24274845.211 -3230532.103 10 0 59454 77400.00000 0 7468506.180 24410826.776 1238.291 10 0 59454 78300.00000 0 7606260.346 24152016.809 3232984.773 10 0 59454 79200.00000 0 7570664.114 23521624.552 6402061.859 10 0 59454 80100.00000 0 7315714.601 22554932.408 9447024.979 10 0 59454 81000.00000 0 6804051.183 21297774.239 12308817.092 10 0 59454 81900.00000 0 6008781.707 19804591.235 14931910.281 10 0 59454 82800.00000 0 4914873.692 18136146.496 17265380.346 10 0 59454 83700.00000 0 3520050.773 16356993.555 19263893.852 10 0 59454 84600.00000 0 1835155.192 14532804.309 20888588.679 10 0 59454 85500.00000 0 -116040.615 12727667.709 22107831.104 10 0 59455 0.00000 0 -2297567.458 11001471.715 22897834.776 10 0 59455 900.00000 0 -4662509.682 9407477.796 23243129.540 10 0 59455 1800.00000 0 -7154721.179 7990188.533 23136870.600 10 0 59455 2700.00000 0 -9710938.868 6783598.683 22580981.626 10 0 59455 3600.00000 0 -12263206.108 5809901.220 21586128.361 10 0 59455 4500.00000 0 -14741506.845 5078703.924 20171522.267 10 0 59455 5400.00000 0 -17076501.433 4586788.865 18364557.173 10 0 59455 6300.00000 0 -19202250.521 4318425.138 16200284.942 10 0 59455 7200.00000 0 -21058813.235 4246221.725 13720739.519 10 0 59455 8100.00000 0 -22594610.751 4332484.382 10974121.852 10 0 59455 9000.00000 0 -23768455.835 4531018.920 8013861.130 10 0 59455 9900.00000 0 -24551162.546 4789304.065 4897570.701 10 0 59455 10800.00000 0 -24926668.028 5050941.016 1685919.368 10 0 59455 11700.00000 0 -24892618.858 5258274.776 -1558559.219 10 0 59455 12600.00000 0 -24460397.186 5355074.804 -4772694.749 10 0 59455 13500.00000 0 -23654585.877 5289159.895 -7893920.886 10 0 59455 14400.00000 0 -22511895.824 5014854.547 -10861502.961 10 0 59455 15300.00000 0 -21079601.564 4495171.482 -13617727.550 10 0 59455 16200.00000 0 -19413552.208 3703626.804 -16109029.941 10 0 59455 17100.00000 0 -17575842.542 2625610.204 -18287037.009 10 0 59455 18000.00000 0 -15632243.275 1259251.838 -20109505.004 10 0 59455 18900.00000 0 -13649499.106 -384250.983 -21541134.364 10 0 59455 19800.00000 0 -11692608.271 -2280861.264 -22554246.393 10 0 59455 20700.00000 0 -9822197.466 -4394474.397 -23129309.559 10 0 59455 21600.00000 0 -8092101.334 -6678202.691 -23255306.386 10 0 59455 22500.00000 0 -6547246.605 -9076118.826 -22929934.965 10 0 59455 23400.00000 0 -5221927.852 -11525385.793 -22159642.253 10 0 59455 24300.00000 0 -4138545.071 -13958685.068 -20959489.465 10 0 59455 25200.00000 0 -3306853.928 -16306842.635 -19352852.764 10 0 59455 26100.00000 0 -2723758.118 -18501544.376 -17370965.450 10 0 59455 27000.00000 0 -2373650.732 -20478028.777 -15052310.596 10 0 59455 27900.00000 0 -2229288.779 -22177645.959 -12441875.676 10 0 59455 28800.00000 0 -2253163.005 -23550177.348 -9590283.325 10 0 59455 29700.00000 0 -2399304.572 -24555820.281 -6552814.561 10 0 59455 30600.00000 0 -2615452.062 -25166755.553 -3388342.805 10 0 59455 31500.00000 0 -2845487.319 -25368233.011 -158198.950 10 0 59455 32400.00000 0 -3032037.355 -25159130.301 3075011.121 10 0 59455 33300.00000 0 -3119132.624 -24551961.548 6248614.030 10 0 59455 34200.00000 0 -3054809.514 -23572335.641 9301078.321 10 0 59455 35100.00000 0 -2793547.134 -22257886.564 12173202.683 10 0 59455 36000.00000 0 -2298435.314 -20656720.178 14809260.236 10 0 59455 36900.00000 0 -1542981.859 -18825441.942 17158076.873 10 0 59455 37800.00000 0 -512482.037 -16826847.481 19174023.020 10 0 59455 38700.00000 0 795108.569 -14727371.844 20817899.808 10 0 59455 39600.00000 0 2368836.051 -12594403.423 22057702.561 10 0 59455 40500.00000 0 4184961.050 -10493574.037 22869246.866 10 0 59455 41400.00000 0 6207715.649 -8486137.738 23236645.005 10 0 59455 42300.00000 0 8390574.665 -6626547.341 23152623.176 10 0 59455 43200.00000 0 10677990.272 -4960329.462 22618672.908 10 0 59455 44100.00000 0 13007519.382 -3522346.599 21645033.021 10 0 59455 45000.00000 0 15312256.409 -2335518.811 20250501.625 10 0 59455 45900.00000 0 17523471.006 -1410058.407 18462080.874 10 0 59455 46800.00000 0 19573341.241 -743249.639 16314460.358 10 0 59455 47700.00000 0 21397668.097 -319782.571 13849348.355 10 0 59455 48600.00000 0 22938457.468 -112626.805 11114663.249 10 0 59455 49500.00000 0 24146260.965 -84407.765 8163600.460 10 0 59455 50400.00000 0 24982176.477 -189226.818 5053593.081 10 0 59455 51300.00000 0 25419423.701 -374847.291 1845186.848 10 0 59455 52200.00000 0 25444427.715 -585152.659 -1399147.960 10 0 59455 53100.00000 0 25057364.464 -762771.409 -4616243.398 10 0 59455 54000.00000 0 24272145.113 -851755.794 -7743474.437 10 0 59455 54900.00000 0 23115840.113 -800199.414 -10719987.870 10 0 59455 55800.00000 0 21627567.815 -562681.338 -13487894.333 10 0 59455 56700.00000 0 19856895.245 -102432.027 -15993399.399 10 0 59455 57600.00000 0 17861819.212 606871.491 -18187851.159 10 0 59455 58500.00000 0 15706413.565 1579757.655 -20028683.702 10 0 59455 59400.00000 0 13458242.048 2818116.873 -21480238.436 10 0 59455 60300.00000 0 11185645.597 4310898.140 -22514447.942 10 0 59455 61200.00000 0 8955017.667 6034358.562 -23111369.977 10 0 59455 62100.00000 0 6828180.995 7952855.276 -23259562.395 10 0 59455 63000.00000 0 4859974.372 10020146.708 -22956292.890 10 0 59455 63900.00000 0 3096148.782 12181148.852 -22207580.568 10 0 59455 64800.00000 0 1571658.928 14374073.597 -21028069.493 10 0 59455 65700.00000 0 309419.420 16532860.446 -19440737.289 10 0 59455 66600.00000 0 -680424.451 18589800.836 -17476444.874 10 0 59455 67500.00000 0 -1400682.922 20478246.520 -15173336.111 10 0 59455 68400.00000 0 -1866759.006 22135289.975 -12576098.835 10 0 59455 69300.00000 0 -2105753.497 23504305.862 -9735101.264 10 0 59455 70200.00000 0 -2155076.540 24537248.314 -6705420.049 10 0 59455 71100.00000 0 -2060624.979 25196608.816 -3545778.187 10 0 59455 72000.00000 0 -1874602.716 25456953.283 -317412.962 10 0 59455 72900.00000 0 -1653076.169 25305974.428 2917104.689 10 0 59455 73800.00000 0 -1453368.031 24745015.398 6095076.956 10 0 59455 74700.00000 0 -1331399.210 23789042.645 9154888.959 10 0 59455 75600.00000 0 -1339091.189 22466068.792 12037198.492 10 0 59455 76500.00000 0 -1521938.502 20816049.070 14686082.932 10 0 59455 77400.00000 0 -1916854.022 18889296.804 17050121.260 10 0 59455 78300.00000 0 -2550378.481 16744483.375 19083390.493 10 0 59455 79200.00000 0 -3437330.518 14446305.290 20746357.436 10 0 59455 80100.00000 0 -4579955.271 12062914.910 22006648.531 10 0 59455 81000.00000 0 -5967608.789 9663221.136 22839682.980 10 0 59455 81900.00000 0 -7576993.384 7314171.788 23229156.768 10 0 59455 82800.00000 0 -9372935.897 5078130.330 23167367.868 10 0 59455 83700.00000 0 -11309678.338 3010455.762 22655375.915 10 0 59455 84600.00000 0 -13332628.772 1157386.097 21702992.509 10 0 59455 85500.00000 0 -15380500.806 -445686.397 20328601.531 10 0 59456 0.00000 0 -17387753.496 -1775476.446 18558812.052 10 0 59456 900.00000 0 -19287230.446 -2821550.731 16427949.300 10 0 59456 1800.00000 0 -21012888.042 -3586526.056 13977393.436 10 0 59456 2700.00000 0 -22502497.959 -4085711.612 11254777.371 10 0 59456 3600.00000 0 -23700210.852 -4346212.236 8313059.528 10 0 59456 4500.00000 0 -24558871.983 -4405530.048 5209489.310 10 0 59456 5400.00000 0 -25041990.929 -4309725.008 2004485.841 10 0 59456 6300.00000 0 -25125281.372 -4111213.184 -1239547.529 10 0 59456 7200.00000 0 -24797705.330 -3866297.351 -4459448.732 10 0 59456 8100.00000 0 -24061977.323 -3632536.054 -7592537.459 10 0 59456 9000.00000 0 -22934506.998 -3466064.200 -10577845.216 10 0 59456 9900.00000 0 -21444782.787 -3418980.136 -13357309.749 10 0 59456 10800.00000 0 -19634223.025 -3536911.208 -15876909.686 10 0 59456 11700.00000 0 -17554543.446 -3856861.804 -18087716.762 10 0 59456 12600.00000 0 -15265710.461 -4405435.536 -19946844.884 10 0 59456 13500.00000 0 -12833566.693 -5197506.982 -21418277.886 10 0 59456 14400.00000 0 -10327228.651 -6235399.081 -22473560.504 10 0 59456 15300.00000 0 -7816365.540 -7508600.697 -23092340.045 10 0 59456 16200.00000 0 -5368472.498 -8994036.032 -23262749.364 10 0 59456 17100.00000 0 -3046251.193 -10656874.448 -22981624.881 10 0 59456 18000.00000 0 -905205.827 -12451846.664 -22254556.505 10 0 59456 18900.00000 0 1008446.958 -14325012.363 -21095769.414 10 0 59456 19800.00000 0 2659469.108 -16215905.632 -19527840.671 10 0 59456 20700.00000 0 4024824.600 -18059969.004 -17581256.557 10 0 59456 21600.00000 0 5094386.415 -19791175.102 -15293819.319 10 0 59456 22500.00000 0 5871099.525 -21344727.107 -12709914.659 10 0 59456 23400.00000 0 6370594.796 -22659725.942 -9879653.851 10 0 59456 24300.00000 0 6620271.540 -23681693.410 -6857906.636 10 0 59456 25200.00000 0 6657888.384 -24364846.394 -3703243.079 10 0 59456 26100.00000 0 6529722.461 -24674027.328 -476804.417 10 0 59456 27000.00000 0 6288374.929 -24586210.395 2758875.725 10 0 59456 27900.00000 0 5990315.518 -24091520.321 5941077.368 10 0 59456 28800.00000 0 5693269.677 -23193720.829 9008104.371 10 0 59456 29700.00000 0 5453558.537 -21910151.833 11900475.672 10 0 59456 30600.00000 0 5323503.904 -20271117.202 14562074.804 10 0 59456 31500.00000 0 5349007.823 -18318747.890 16941235.560 10 0 59456 32400.00000 0 5567409.047 -16105386.872 18991743.069 10 0 59456 33300.00000 0 6005707.286 -13691562.209 20673731.081 10 0 59456 34200.00000 0 6679230.801 -11143631.723 21954458.171 10 0 59456 35100.00000 0 7590804.531 -8531196.327 22808947.883 10 0 59456 36000.00000 0 8730455.151 -5924388.734 23220480.340 10 0 59456 36900.00000 0 10075667.079 -3391149.569 23180925.456 10 0 59456 37800.00000 0 11592180.464 -994603.568 22690910.877 10 0 59456 38700.00000 0 13235299.500 1209355.527 21759820.671 10 0 59456 39600.00000 0 14951657.842 3174171.033 20405623.976 10 0 59456 40500.00000 0 16681368.511 4864332.855 18654535.992 10 0 59456 41400.00000 0 18360469.201 6256619.283 16540516.885 10 0 59456 42300.00000 0 19923560.869 7340819.228 14104617.532 10 0 59456 43200.00000 0 21306528.988 8119904.945 11394184.089 10 0 59456 44100.00000 0 22449232.705 8609648.387 8461936.443 10 0 59456 45000.00000 0 23298048.052 8837697.928 5364938.510 10 0 59456 45900.00000 0 23808157.129 8842155.276 2163480.725 10 0 59456 46800.00000 0 23945485.749 8669713.790 -1080102.819 10 0 59456 47700.00000 0 23688206.772 8373438.288 -4302658.453 10 0 59456 48600.00000 0 23027744.884 8010281.812 -7441453.233 10 0 59456 49500.00000 0 21969239.868 7638446.109 -10435406.072 10 0 59456 50400.00000 0 20531448.574 7314699.129 -13226284.474 10 0 59456 51300.00000 0 18746089.804 7091764.475 -15759842.666 10 0 59456 52200.00000 0 16656659.966 7015894.368 -17986878.419 10 0 59456 53100.00000 0 14316769.774 7124729.458 -19864187.676 10 0 59456 54000.00000 0 11788072.244 7445536.249 -21355398.742 10 0 59456 54900.00000 0 9137869.113 7993896.530 -22431670.374 10 0 59456 55800.00000 0 6436495.954 8772903.775 -23072241.092 10 0 59456 56700.00000 0 3754594.890 9772899.927 -23264820.180 10 0 59456 57600.00000 0 1160387.970 10971763.213 -23005813.920 10 0 59456 58500.00000 0 -1282936.202 12335734.497 -22300383.800 10 0 59456 59400.00000 0 -3519615.259 13820747.309 -21162336.478 10 0 59456 60300.00000 0 -5503387.488 15374205.856 -19613848.361 10 0 59456 61200.00000 0 -7199163.378 16937136.711 -17685030.529 10 0 59456 62100.00000 0 -8584226.772 18446624.526 -15413342.594 10 0 59456 63000.00000 0 -9648917.577 19838430.419 -12842866.649 10 0 59456 63900.00000 0 -10396769.349 21049683.954 -10023455.153 10 0 59456 64800.00000 0 -10844097.709 22021536.694 -7009768.728 10 0 59456 65700.00000 0 -11019058.211 22701666.660 -3860221.980 10 0 59456 66600.00000 0 -10960214.189 23046529.139 -635857.327 10 0 59456 67500.00000 0 -10714675.526 23023259.686 2600831.893 10 0 59456 68400.00000 0 -10335887.076 22611149.456 5787106.656 10 0 59456 69300.00000 0 -9881160.037 21802630.697 8861192.768 10 0 59456 70200.00000 0 -9409050.355 20603730.521 11763473.545 10 0 59456 71100.00000 0 -8976694.604 19033973.071 14437641.871 10 0 59456 72000.00000 0 -8637215.598 17125733.157 16831789.455 10 0 59456 72900.00000 0 -8437307.129 14923067.161 18899412.472 10 0 59456 73800.00000 0 -8415099.800 12480068.634 20600314.340 10 0 59456 74700.00000 0 -8598398.251 9858815.903 21901388.192 10 0 59456 75600.00000 0 -9003364.670 7126995.790 22777263.999 10 0 59456 76500.00000 0 -9633704.946 4355301.091 23210807.702 10 0 59456 77400.00000 0 -10480392.896 1614709.035 23193462.377 10 0 59456 78300.00000 0 -11521945.583 -1026247.045 22725424.384 10 0 59456 79200.00000 0 -12725239.697 -3504100.108 21815650.410 10 0 59456 80100.00000 0 -14046836.214 -5762857.175 20481694.418 10 0 59456 81000.00000 0 -15434759.027 -7756092.551 18749376.762 10 0 59456 81900.00000 0 -16830653.946 -9448639.444 16652290.874 10 0 59456 82800.00000 0 -18172237.943 -10817809.362 14231156.283 10 0 59456 83700.00000 0 -19395935.902 -11854088.489 11533029.813 10 0 59456 84600.00000 0 -20439593.655 -12561282.122 8610389.869 10 0 59456 85500.00000 0 -21245152.354 -12956101.501 5520111.637 99